Theta_e
344 344 350 343 343 344 345 348 350 349 349 352 355 353 351 348 353 353 351 351 348 345 347 343 345 342 344 344 344 346 347 351 350 348 348 349 350 349 348 351 347 346 345 346
346 348 345 344 343 341 340 341 343 342 344 351 350 355 352 349 351 352 351 351 349 348 347 344 345 341 342 342 344 346 349 351 346 346 348 349 349 351 350 350 348 345 346 346
343 344 343 343 343 337 338 339 340 340 343 347 347 356 354 351 348 350 351 351 350 350 348 347 350 346 341 340 342 345 347 352 351 353 351 345 344 345 343 345 349 347 346 348
342 341 343 344 338 338 337 334 337 339 341 352 347 364 350 346 351 348 350 351 350 348 347 348 350 346 345 340 341 342 345 349 348 351 346 350 349 350 349 348 351 352 347 346
348 346 341 340 340 336 336 334 335 336 340 350 347 354 349 346 352 351 347 348 349 348 347 348 348 345 347 342 341 341 342 349 351 341 352 352 347 350 349 350 348 347 347 349
343 340 341 339 338 336 335 335 338 342 340 346 348 349 347 347 353 353 348 347 347 349 349 349 349 347 348 347 345 343 343 349 352 352 347 349 353 351 351 347 348 351 349 350
340 340 338 337 337 336 334 338 344 347 344 343 345 351 351 341 350 354 349 347 347 348 350 348 349 348 347 348 348 346 346 347 350 353 351 341 348 344 352 353 345 350 347 352
342 341 337 337 335 336 337 339 343 345 343 343 344 348 349 344 347 351 349 347 346 347 347 349 349 350 350 348 349 347 348 349 350 351 351 346 339 336 336 347 348 349 349 354
340 340 338 338 336 335 335 336 336 334 337 341 345 346 347 345 349 349 349 347 346 346 347 348 348 351 350 349 347 348 349 351 351 351 351 350 348 342 349 349 350 350 347 345
338 340 338 338 334 334 334 335 336 338 343 345 350 349 350 345 346 348 349 348 347 345 345 346 347 348 348 349 349 347 347 347 346 351 352 348 348 343 340 349 348 351 350 348
337 337 339 338 334 334 334 334 335 336 336 339 343 343 345 347 345 347 347 347 347 346 345 345 346 347 348 348 349 350 349 348 347 347 350 350 351 351 349 343 345 346 346 341
334 336 337 337 336 336 337 337 337 338 339 339 344 345 339 343 343 341 346 346 347 347 346 345 345 346 347 347 347 347 348 350 350 349 349 350 350 352 351 351 351 352 351 349
333 334 335 335 335 337 336 334 335 336 338 344 348 347 340 339 342 342 344 346 349 348 347 345 346 347 347 347 347 347 346 346 347 348 350 351 351 350 350 351 351 352 351 349
334 333 333 335 338 337 337 336 336 337 339 339 341 341 340 344 341 341 341 343 351 350 348 346 348 348 348 348 348 348 348 348 349 350 351 352 351 351 351 352 351 350 350 351
334 334 334 334 336 336 336 336 337 337 338 338 340 338 344 343 344 339 340 345 349 351 350 349 350 352 351 351 351 350 350 349 350 350 350 351 350 351 350 350 350 351 352 352
334 334 334 335 337 336 336 336 336 336 337 336 337 338 339 341 341 343 344 347 347 349 350 347 350 351 353 354 355 354 353 353 353 351 353 353 352 351 353 352 353 355 355 355
337 339 341 337 335 336 336 336 337 337 337 338 339 339 341 343 343 344 346 348 349 350 349 349 349 353 353 354 354 356 356 356 354 354 354 356 355 355 356 355 355 358 358 358
337 340 340 342 340 341 338 337 337 338 336 336 337 339 339 342 343 343 345 347 349 351 351 350 350 351 351 353 358 358 358 358 356 355 354 358 359 357 357 357 357 356 354 352
336 337 339 339 341 339 339 339 339 338 344 341 338 336 339 337 342 344 344 345 347 350 352 351 351 350 349 352 356 358 358 358 355 356 359 359 357 358 357 355 354 351 351 346
337 337 339 340 340 340 341 339 337 337 345 339 341 341 340 338 342 347 344 346 347 346 351 351 349 349 351 355 356 357 358 360 359 360 360 359 357 355 353 352 344 338 331 331
343 344 342 342 339 339 340 338 337 342 342 341 341 342 343 350 347 339 337 346 348 347 348 350 349 351 356 358 354 359 359 361 361 359 361 357 355 350 339 331 327 328 339 336
335 344 341 342 345 343 339 341 345 344 341 341 341 342 344 346 346 345 344 346 348 347 348 350 352 355 357 358 360 362 361 361 359 356 351 346 333 327 325 323 329 330 331 326
333 335 340 341 343 336 335 336 338 341 339 339 338 339 343 344 346 345 345 347 349 351 353 353 355 357 359 360 362 361 361 359 353 348 335 325 326 326 323 323 325 325 331 333
329 336 337 337 338 335 332 331 331 333 333 333 333 334 337 340 342 346 345 346 350 352 354 354 355 359 360 360 361 360 358 351 345 330 324 324 324 323 324 327 333 333 334 333
325 325 329 331 333 333 335 333 330 330 330 330 331 331 332 334 336 338 342 347 350 352 354 355 357 359 360 360 360 359 352 345 329 325 325 325 324 327 333 334 334 333 332 332
322 323 323 325 325 324 326 332 329 328 328 328 328 329 329 331 333 334 337 338 347 351 355 355 357 358 359 359 358 355 346 331 326 326 327 332 331 334 334 332 333 332 331 330
Wind_Speed
27 5 10 11 13 10 16 23 32 30 11 14 8 15 15 15 23 20 20 22 21 26 26 24 22 20 17 19 19 17 15 16 10 4 7 4 7 3 4 3 1 3 4 5
12 8 18 21 19 16 7 5 10 9 9 4 7 17 12 10 16 18 21 26 23 23 25 27 21 23 19 20 20 17 15 12 12 9 7 4 5 8 4 3 2 1 0 2
5 20 22 23 21 10 2 2 6 10 15 27 15 9 11 10 8 16 24 20 24 25 29 29 25 22 23 23 22 21 17 13 12 7 8 7 7 2 5 2 2 3 3 2
5 22 24 23 8 7 7 2 5 3 12 4 12 5 13 17 9 12 23 27 26 29 29 29 24 25 27 25 22 22 21 15 15 14 9 6 4 2 5 4 3 1 2 3
12 28 15 3 11 5 5 0 8 6 5 11 7 7 9 16 12 14 18 24 32 32 31 28 26 27 27 25 25 23 22 20 15 16 11 9 9 6 3 4 1 1 2 2
26 25 21 10 13 9 5 8 7 13 9 8 17 11 4 9 21 17 21 22 23 32 28 32 27 26 26 25 26 25 23 22 19 15 18 16 11 8 5 6 5 5 4 1
23 25 25 22 15 13 7 3 4 3 4 1 27 14 11 28 23 20 20 27 25 28 32 28 28 31 29 28 31 27 25 24 22 20 15 20 18 14 11 8 4 3 5 7
19 6 9 14 10 10 12 11 7 13 9 8 14 7 9 27 41 26 27 27 26 25 25 27 33 36 33 29 32 31 30 24 24 22 20 16 16 17 15 12 8 7 4 3
8 10 19 23 10 11 15 11 14 10 9 5 10 8 8 15 21 23 24 26 24 24 24 23 23 33 35 33 31 28 30 26 25 23 23 21 19 16 13 10 13 11 12 10
10 8 17 20 10 12 15 15 11 5 3 3 18 8 6 23 12 18 18 23 22 21 23 22 23 23 24 26 31 31 30 24 29 24 21 21 21 20 18 19 20 16 15 15
25 19 7 22 10 11 6 9 11 3 2 4 5 1 17 23 9 17 16 21 22 20 21 20 21 22 22 22 25 24 24 24 23 22 24 22 20 18 18 20 23 23 22 20
15 12 11 15 11 10 10 13 8 3 7 1 8 6 7 6 11 7 21 22 23 19 20 21 22 23 22 21 22 24 25 23 21 20 22 23 20 19 19 18 14 16 17 15
10 11 12 15 2 11 10 10 8 11 4 15 5 5 19 8 11 10 10 21 28 22 21 24 24 26 25 21 21 21 23 23 21 19 19 18 20 19 19 17 18 14 16 18
7 12 14 4 6 6 15 14 17 18 6 7 4 3 3 10 7 7 12 15 28 24 25 27 25 24 24 21 20 18 19 20 18 20 17 19 18 18 15 14 15 16 15 16
8 13 13 7 12 9 18 18 14 18 8 7 12 3 14 19 29 13 11 13 20 23 25 26 25 29 25 23 20 19 17 17 16 17 18 15 15 14 13 10 13 14 14 10
11 13 16 15 15 9 20 15 3 18 20 5 12 10 18 31 23 13 13 14 14 19 19 29 26 27 23 21 20 21 20 17 15 19 14 15 14 15 14 18 13 12 10 11
9 10 13 15 13 7 6 7 5 17 9 16 14 10 26 20 13 15 14 15 14 14 19 21 18 18 14 18 22 20 21 14 20 19 20 16 17 18 15 12 11 10 11 11
9 4 7 13 20 15 10 11 12 19 6 5 5 10 3 16 17 15 15 15 15 16 17 18 19 14 14 17 17 20 21 19 21 18 18 19 17 15 13 13 11 12 9 8
15 13 12 11 16 16 13 3 6 7 17 17 8 5 9 2 21 15 13 13 15 17 20 22 20 18 15 20 21 20 20 20 22 18 19 16 14 13 12 11 8 7 8 8
19 16 13 14 16 15 5 12 10 15 2 12 28 9 9 11 4 12 15 9 11 16 19 20 20 16 18 19 24 25 26 20 19 19 17 14 14 12 11 10 9 7 4 3
2 4 11 14 15 9 10 25 24 6 4 17 4 4 3 9 12 13 12 15 13 17 22 21 21 21 20 16 16 22 22 22 21 19 20 17 15 12 9 8 6 8 11 7
15 5 5 6 22 5 18 4 2 8 10 10 9 8 5 7 8 1 8 15 17 20 23 22 21 24 21 20 21 22 23 25 24 22 17 13 9 8 9 8 9 8 8 5
9 9 5 6 3 8 15 15 18 17 12 10 8 5 7 11 9 4 6 17 19 20 23 22 22 23 20 23 26 26 28 26 22 18 14 13 12 8 7 8 8 10 10 9
13 8 3 5 6 13 12 10 9 10 8 7 6 8 10 11 13 14 7 12 16 19 22 23 24 22 24 25 26 28 26 23 21 18 16 14 11 10 11 12 11 7 7 6
12 9 6 7 10 9 6 5 6 5 5 5 5 7 9 10 12 13 12 8 9 18 21 22 25 27 26 26 27 27 24 24 22 18 15 14 14 17 18 15 14 13 12 12
14 12 9 8 10 11 8 10 8 3 3 3 3 4 6 7 7 9 11 13 9 3 24 23 26 29 28 29 27 24 26 26 23 20 17 16 18 17 17 19 16 14 15 14
Wind_Direction
23 352 181 236 232 263 215 191 179 214 164 184 67 142 149 165 147 159 168 180 185 178 177 179 165 169 161 161 163 171 167 166 164 128 151 140 183 249 107 174 71 159 123 113
32 321 275 270 282 222 207 204 172 124 149 29 333 127 140 167 158 163 167 173 181 180 181 175 173 171 176 172 173 172 175 190 181 153 139 130 124 126 99 204 332 267 91 83
54 229 266 294 278 215 101 353 175 184 120 112 243 133 138 161 180 163 163 182 183 190 192 172 174 181 181 183 182 182 179 189 180 179 163 206 188 155 188 248 0 31 54 38
304 266 266 271 310 330 178 21 289 166 173 142 183 35 15 332 243 186 169 183 185 195 193 180 185 192 187 185 185 190 190 191 195 166 163 187 175 181 166 202 218 311 359 298
262 283 326 304 276 330 49 135 288 257 239 141 224 90 292 329 294 192 203 190 181 184 192 191 189 190 189 184 186 192 196 188 194 185 171 199 193 212 229 176 215 196 278 338
239 285 266 250 282 250 327 253 273 323 278 232 113 98 248 237 235 207 194 187 194 179 189 184 188 190 190 192 190 189 199 190 186 206 192 184 203 201 166 202 221 252 265 355
248 246 245 227 250 237 224 283 334 326 233 317 126 102 269 225 232 200 187 183 191 184 181 187 186 188 195 196 194 190 199 197 196 195 213 200 208 205 203 216 199 296 261 245
281 221 228 190 228 292 284 167 181 268 219 120 118 146 183 204 213 184 180 182 183 184 186 190 188 186 189 194 195 190 193 199 205 208 211 217 213 217 220 224 210 239 278 207
304 320 309 301 234 231 268 243 300 300 3 49 97 4 12 340 142 155 168 175 176 178 177 188 193 183 188 188 192 187 186 195 208 213 217 221 227 223 225 236 255 258 238 244
229 237 284 264 229 260 279 300 300 336 32 354 96 90 146 296 150 149 157 168 171 174 174 179 187 193 188 186 191 200 215 218 213 209 226 231 235 239 225 218 226 227 231 234
225 243 290 278 210 248 208 235 244 242 172 285 76 122 192 204 132 153 157 166 165 173 175 173 180 183 188 195 192 198 200 204 212 224 214 230 236 237 247 236 234 244 254 255
229 255 196 227 211 192 242 271 293 357 279 59 73 3 42 123 158 140 158 160 162 178 178 173 174 171 180 190 194 199 200 203 208 216 216 219 230 226 237 257 249 255 270 272
245 231 266 272 242 225 244 255 252 184 140 94 112 285 266 287 126 155 129 157 154 172 180 171 167 166 172 179 188 192 200 206 210 214 219 217 225 233 232 236 254 249 255 267
295 236 238 258 91 351 306 321 326 330 76 104 103 222 22 344 113 152 147 156 159 178 184 169 165 165 168 172 180 187 189 200 201 206 211 217 217 225 231 238 236 247 253 258
250 263 260 267 150 338 292 281 314 308 301 168 169 193 116 107 258 157 140 149 170 183 196 160 176 159 168 168 177 181 186 189 195 195 206 211 202 208 223 221 227 222 238 256
235 261 278 288 126 278 267 241 145 298 279 129 153 109 140 195 217 151 145 157 175 190 217 143 207 168 156 173 178 189 186 192 200 194 185 205 208 200 210 211 214 224 234 238
290 355 341 278 289 256 226 281 219 222 246 55 69 81 154 183 156 152 155 163 166 187 210 162 156 151 163 183 190 193 192 189 197 194 195 206 217 214 214 221 219 211 223 236
273 85 16 314 309 278 289 329 329 332 28 11 56 116 113 144 148 153 164 163 166 176 193 176 179 175 185 186 180 187 183 189 194 201 195 204 213 209 206 210 198 205 208 220
262 258 234 251 248 294 338 319 30 4 354 5 331 353 107 244 129 134 154 163 168 176 182 187 180 192 185 173 176 177 170 188 195 197 192 197 198 192 178 176 174 190 208 226
247 284 282 261 264 277 255 113 55 279 41 1 306 32 2 299 195 128 141 166 169 176 181 181 180 167 169 165 168 167 174 185 182 186 177 173 164 163 162 190 205 215 199 168
32 18 304 309 265 289 45 167 148 100 23 185 28 17 44 46 60 139 186 172 172 174 171 178 178 166 167 164 173 167 170 167 178 170 158 164 177 195 201 203 195 154 159 185
274 200 152 257 267 201 21 40 33 107 131 89 78 7 16 74 60 40 178 169 173 172 165 168 160 158 165 161 158 163 163 174 182 177 176 177 180 191 192 183 176 184 182 155
285 314 343 349 100 94 57 53 40 80 76 58 70 51 30 54 42 20 279 169 175 172 160 165 160 157 156 167 167 168 178 189 184 174 170 170 182 192 175 160 152 132 110 94
289 35 318 354 75 96 88 73 65 74 83 81 56 41 44 41 37 21 340 171 179 176 166 166 163 160 162 170 178 192 192 186 178 173 173 181 182 166 140 120 105 117 141 144
290 338 332 308 283 268 174 177 148 103 85 74 52 34 33 27 29 18 4 7 196 182 174 173 169 169 168 173 191 198 194 182 178 178 177 169 163 147 149 161 175 185 174 164
280 285 279 281 296 317 334 58 116 128 14 31 9 11 16 12 13 5 352 349 320 272 181 178 176 175 176 182 197 198 187 181 182 176 170 169 155 168 172 182 180 184 194 192